RH
12 15 18 14 11 9 9 8 10 10 10 9 9 9 9 9 10 10 9 8 8 8 8 8 8 7 6 6 6 7 7 7 7 7 6 7 6 6 6 6 5 5 5 6
14 18 14 10 10 10 11 11 11 10 9 9 9 8 8 8 8 9 9 9 9 9 8 8 8 8 7 7 7 8 8 8 8 8 8 8 8 8 8 8 7 7 6 6
14 16 13 11 11 11 12 12 12 11 11 10 11 11 9 8 7 7 8 9 8 9 8 8 8 8 8 8 8 7 7 8 9 10 10 10 10 10 10 9 8 8 8 7
14 14 12 13 13 13 14 14 13 14 15 15 12 15 11 10 9 8 7 8 8 8 8 8 8 8 8 8 8 8 8 8 9 10 11 10 10 10 9 10 10 9 9 9
18 15 13 14 15 13 14 14 14 15 16 17 15 19 14 12 11 10 9 9 8 9 9 9 9 8 7 8 8 9 10 11 11 12 12 12 11 11 10 11 10 10 9 9
15 14 14 14 13 14 14 15 19 19 22 27 17 15 18 16 15 13 12 11 11 10 10 10 9 10 10 11 11 12 12 12 12 13 13 13 13 13 12 12 12 12 11 10
16 15 14 14 15 17 17 19 28 32 32 27 19 18 18 16 15 14 13 13 13 12 12 13 13 13 13 13 13 13 13 12 13 13 14 14 14 15 15 14 14 14 13 13
19 23 17 16 17 18 18 20 25 26 28 24 21 23 22 18 16 17 17 17 16 16 17 17 17 16 15 15 16 16 15 14 13 13 13 14 14 14 15 16 16 15 15 14
18 21 17 17 18 19 21 24 21 24 23 31 28 22 22 19 20 22 21 20 19 20 20 20 20 19 18 17 17 17 17 16 15 14 13 14 15 15 15 16 17 17 17 16
20 23 21 20 20 21 22 22 27 30 38 32 26 24 25 22 21 23 24 24 23 23 23 22 22 21 20 20 20 19 19 17 16 16 14 13 14 15 16 17 17 18 18 18
21 21 26 22 23 24 24 24 23 25 26 36 36 31 23 23 22 22 24 26 26 26 25 25 24 23 22 22 22 21 19 18 17 16 15 15 15 17 18 17 17 18 18 19
22 24 27 25 24 24 24 24 24 34 33 30 35 34 24 23 23 25 28 29 29 28 27 26 25 24 24 23 22 21 20 19 18 17 17 15 16 19 20 19 19 19 18 19
24 25 29 30 28 26 25 24 23 26 31 37 46 37 26 26 27 28 29 29 28 28 27 27 27 26 24 24 23 22 21 21 19 18 18 18 19 20 21 21 21 20 19 19
24 27 29 32 29 29 27 26 25 27 38 37 34 28 29 28 29 29 28 27 27 28 28 28 27 26 25 24 24 24 23 22 20 19 19 19 21 22 23 22 22 23 22 20
25 28 27 27 26 27 28 29 30 30 29 31 29 28 27 27 28 26 27 29 31 30 30 30 29 28 27 26 26 25 24 23 22 21 21 21 22 23 23 22 21 23 24 23
26 29 27 28 28 28 30 29 29 30 29 27 26 26 26 26 26 27 28 31 32 31 31 31 31 29 29 28 27 27 26 24 24 25 25 26 27 27 26 26 26 26 28 28
29 30 31 31 30 30 32 28 28 26 26 25 28 25 26 27 27 26 29 32 32 32 33 34 33 31 30 29 29 28 27 28 29 29 30 32 32 32 32 31 31 32 33 33
29 31 35 39 33 38 27 25 25 25 26 26 25 26 28 27 28 29 31 32 33 34 36 35 35 34 32 30 30 30 31 32 32 33 34 35 36 37 38 40 40 40 40 39
30 33 44 46 40 30 27 27 28 28 27 27 27 28 30 30 30 31 32 34 34 36 37 38 37 36 35 33 32 32 34 35 37 38 38 39 40 41 41 42 45 46 46 47
34 34 41 46 48 46 29 28 28 30 30 31 30 32 33 34 35 36 35 37 38 40 41 41 39 38 37 36 35 35 37 39 41 41 43 43 44 45 45 47 49 52 52 53
41 42 46 49 54 41 30 32 33 36 35 33 34 35 36 37 37 37 38 38 41 44 46 44 44 41 39 39 38 39 40 42 42 44 46 47 47 47 48 50 52 54 56 56
43 50 52 50 53 49 33 34 36 36 35 37 40 39 38 39 38 38 39 42 43 46 49 49 48 45 43 42 41 43 43 45 45 47 48 49 50 51 53 54 58 60 61 59
45 43 50 47 42 37 35 35 37 38 40 44 43 44 44 42 42 41 42 43 45 48 50 51 50 47 48 46 43 42 46 48 49 49 50 50 50 52 54 57 59 60 61 59
43 42 45 46 40 40 39 39 40 44 46 46 49 49 50 48 47 45 46 46 47 48 50 50 51 50 50 52 50 46 49 51 51 50 52 55 55 57 56 57 61 61 64 61
45 47 46 44 41 42 42 43 45 48 47 50 53 52 52 51 49 50 48 49 48 48 49 49 49 51 52 53 52 51 51 53 53 53 54 57 59 60 60 60 61 65 68 67
47 47 49 45 46 47 46 49 51 51 53 53 51 50 50 51 52 54 50 49 50 49 47 47 49 51 53 53 51 53 57 58 59 57 56 58 61 64 63 64 66 70 69 70